www.pogodaiklimat.ru

Погода и климат >> Архив погоды >> Туркменистан >> Акмолла


ПОГОДА в Акмолле

  • Прогноз погоды в Акмолле
  • Монитор погоды в Акмолле

АРХИВ ПОГОДЫ в Акмолле

Время (UTC), дата Ветер
(напр.,м/с)
 
Видим.   Явления Облачность Т
(С)
Тd
(С)
f
(%)
Тe
(С)
Тes
(С)
Комфортность P
(гПа)
Po
(гПа)
Тmin
(С)
Tmax
(С)
R
(мм)
R24
(мм)
S
(см)
18 9.06 С 3 10 км ясно +22.7 +3.2 28 +23 +23 комфорт 1016.0 994.0 +29.2 0.0
21 9.06 С 4 10 км ясно +20.1 +4.1 35 +21 +21 комфорт 1016.7 994.4
00 10.06 С 2 10 км ясно +16.4 +3.6 42 +17 +17 1017.0 994.6
03 10.06 СВ 2 10 км ясно +21.1 +6.2 38 +22 +26 комфорт 1017.9 995.8 +15.3
06 10.06 С 4 10 км ясно +27.0 +5.9 26 +26 +37 жарко 1018.2 996.5 +15.3
09 10.06 СВ 4 10 км ясно +30.1 +5.5 21 +28 +42 жарко 1017.4 996.0
12 10.06 СВ 3 20 км ясно +29.9 +4.0 19 +28 +35 жарко 1017.1 995.6
15 10.06 СВ 4 10 км ясно +28.0 +5.8 24 +27 +27 жарко 1017.7 996.0 +30.6
18 10.06 С 2 10 км ясно +22.9 +4.5 30 +23 +23 комфорт 1018.8 996.8 +30.6
21 10.06 С 3 10 км ясно +20.2 +4.0 34 +21 +21 комфорт 1019.1 997.0
00 11.06 С 2 10 км ясно +17.0 +3.8 41 +17 +17 1018.6 996.2
03 11.06 В 2 10 км ясно +24.2 +5.8 31 +24 +28 комфорт 1018.7 996.9 +16.4
06 11.06 В 4 10 км ясно +28.6 +6.4 25 +28 +39 жарко 1018.2 996.7 +16.4
09 11.06 В 4 10 км ясно +30.4 +3.2 18 +28 +41 жарко 1017.4 996.0
12 11.06 штиль 0 10 км ясно +31.0 +3.4 17 +29 +40 жарко 1015.8 994.4
15 11.06 СВ 3 10 км ясно +30.0 +3.8 19 +28 +28 жарко 1015.2 993.7 +32.2
18 11.06 СВ 2 2000 м ясно +23.7 +3.8 27 +23 +23 комфорт 1015.7 993.7 +32.2
21 11.06 В 2 10 км ясно +21.1 +4.0 33 +21 +21 комфорт 1016.0 993.9
00 12.06 В 2 10 км ясно +18.3 +3.6 38 +19 +19 1015.2 992.9
03 12.06 В 3 10 км ясно +25.4 +5.1 27 +25 +28 комфорт 1015.2 993.4 +17.4
06 12.06 В 4 10 км ясно +31.7 +5.6 19 +30 +41 жарко 1013.5 992.2 +17.4
09 12.06 В 4 10 км ясно +33.2 +3.6 16 +31 +44 жарко 1011.7 990.6
12 12.06 В 5 10 км ясно +34.2 +3.2 14 +31 +36 жарко 1010.1 989.1
15 12.06 В 3 10 км ясно +33.0 +5.9 18 +31 +31 жарко 1009.2 998.1 +35.0
18 12.06 В 3 10 км ясно +25.5 +5.6 28 +25 +25 комфорт 1010.3 988.6 +35.0
21 12.06 В 2 10 км ясно +23.4 +6.2 33 +24 +24 комфорт 1010.4 988.5
00 13.06 В 2 10 км ясно +20.4 +6.1 39 +22 +22 комфорт 1009.8 987.8
03 13.06 СВ 3 10 км ясно +26.8 +5.5 26 +26 +30 жарко 1009.4 987.8 +19.0
06 13.06 В 4 10 км ясно +34.0 +5.0 16 +31 +43 жарко 1008.8 987.7 +19.0
09 13.06 В 5 10 км 4/0
[Ci fib]
+35.6 +3.8 14 +33 +42 жарко 1006.8 985.9
12 13.06 В 3 10 км 5/0
[Ci fib]
+36.0 +3.6 13 +33 +39 жарко 1005.3 984.4
15 13.06 В 4 10 км 8/0
[Ci fib]
+35.2 +4.1 14 +32 +32 жарко 1005.3 984.4 +37.0
18 13.06 СВ 2 10 км 5/0
[Ci fib]
+28.3 +3.4 20 +27 +27 жарко 1005.9 984.6 +37.0
21 13.06 В 2 10 км 3/0
[Ci fib]
+26.1 +5.1 26 +25 +25 комфорт 1006.3 984.8
00 14.06 СВ 1 10 км 3/0
[Ci fib]
+21.5 +4.6 33 +22 +22 комфорт 1005.8 983.9
03 14.06 В 2 10 км 3/0
[Ci fib]
+28.3 +5.8 24 +27 +31 жарко 1006.3 985.6 +21.0
06 14.06 ЮЗ 2 10 км 3/0
[Ci fib]
+35.3 +4.3 15 +33 +48 жарко 1006.9 985.3 +21.0
09 14.06 ЮВ 2 10 км 4/4 600 м
[Cu med, cong]
+37.3 +3.8 13 +34 +46 очень
жарко
1005.5 984.7
12 14.06 З 3 10 км 6/6 600 м
[Cu med, cong]
+39.1 +2.7 11 +36 +39 очень
жарко
1004.2 983.6
15 14.06 З 3 10 км 5/5 600 м
[Cu med, cong]
+37.0 +2.5 12 +34 +34 очень
жарко
1004.3 983.5 +39.4
18 14.06 З 3 10 км 8/0
[Ci fib]
+30.6 +7.0 23 +29 +29 жарко 1005.1 983.9 +39.4
21 14.06 З 2 10 км 8/0
[Ci fib]
+28.2 +7.1 26 +27 +27 жарко 1005.4 984.1
00 15.06 С 2 10 км 4/0
[Ci fib]
+25.2 +6.1 29 +25 +25 комфорт 1006.1 984.5
03 15.06 СЗ 3 10 км ясно +27.2 +7.1 28 +27 +30 жарко 1008.1 986.6 +23.0
06 15.06 З 5 10 км ясно +33.7 +7.7 20 +32 +41 жарко 1009.0 987.9 +23.0
09 15.06 З 6 10 км ясно +35.8 +3.6 13 +33 +40 жарко 1008.7 987.7
12 15.06 З 6 10 км ясно +35.7 +2.9 13 +33 +36 жарко 1008.3 987.4
03 16.06 СВ 3 10 км ясно +23.9 +5.6 31 +24 +27 комфорт 1011.7 989.8 +16.4

 

Местоположение метеостанции Акмолла (Ахалский велаят, Туркменистан): широта 39.58 долгота 59.95 высота над уровнем моря 108 м.

В архиве по умолчанию представлена погода в Акмолле за последнюю неделю. Архивные данные за месяц целиком и за предыдущие месяцы, начиная с января 2011 года, Вы можете получить, выбрав интересующий диапазон дат из раскрывающегося списка и нажав кнопку "Ввод!".


*Определитесь, кто Вы:
робот инопланетянин человек

Внимание! Время в таблицах - всемирное. Для получения местного времени необходимо прибавить поправку, которая равна 5 ч.

Смотрите также архив погоды в соседних городах и на ближайших метеорологических станциях:

Погода в Ербенте (Ахалский велаят, Туркменистан) (119 км)
Погода в Дервезе (Дашогузский велаят, Туркменистан) (142 км)
Погода в Хиве (Хорезмская область, Узбекистан) (206 км)
Погода в Тюя-Муюне (Лебапский велаят, Туркменистан) (220 км)
Погода в Дарганате (Лебапский велаят, Туркменистан) (222 км)
Погода в Ургенче (Хорезмская область, Узбекистан) (227 км)
Погода в Ашхабаде (город Ашхабад, Туркменистан) (232 км)
Погода в Дашогузе (Дашогузский велаят, Туркменистан) (242 км)
Погода в Екеже (Дашогузский велаят, Туркменистан) (245 км)
Погода в Шах-Сенеме (Дашогузский велаят, Туркменистан) (246 км)

Пояснения к столбцам:

Ветер - указаны скорость ветра в м/с - средняя за 10 мин, порывы в срок и между сроками (в фигурных скобках) и направление, откуда дует ветер: С - северный, СВ - северо-восточный, В - восточный, ЮВ - юго-восточный, Ю - южный, ЮЗ - юго-западный, З - западный, СЗ - северо-западный.
Видимость - горизонтальная дальность видимости в метрах или километрах. При видимости от 1 до 10 км при отсутствии осадков обычно наблюдается дымка, при ухудшении видимости до 1 км и менее - туман. В сухую погоду видимость может ухудшаться дымом, пылью или мглою.
Явления - указаны атмосферные явления, наблюдавшиеся в срок или в последний час перед сроком; фигурными скобками обозначены явления, наблюдавшиеся между сроками (за 1-3 часа до срока); квадратными скобками обозначены град или гололедные отложения с указанием их диаметра в мм.
Облачность - указаны через наклонную черту общая и нижняя облачность в баллах и высота нижней границы облаков в метрах; квадратными скобками обозначены формы облаков: Ci - перистые, Cs - перисто-слоистые, Cc - перисто-кучевые, Ac - высококучевые, As - высокослоистые, Sc - слоисто-кучевые, Ns - слоисто-дождевые, Cu - кучевые, Cb - кучево-дождевые. Подробнее классификацию облаков см. в Атласе облаков (PDF).
T - Температура воздуха - температура, измеренная на высоте 2 м над землей.
Td - Температура точки росы - температура, при понижении до которой содержащийся в воздухе водяной пар достигнет насыщения.
f - Относительная влажность воздуха - влажноcть воздуха, измеренная на высоте 2 м над землей.
Te - Эффективная температура - температура, которую ощущает одетый по сезону человек в тени. Характеристика душности погоды. При расчете учитывается влияние влажности воздуха и скорости ветра на теплоощущения человека.
Tes - Эффективная температура на солнце - температура, которую ощущает человек, с поправкой на солнечный нагрев. Характеристика знойности погоды. Зависит от высоты солнца над горизонтом, облачности и скорости ветра. Ночью, в пасмурную погоду, а также при ветре 12 м/с и более поправка равна нулю.
P - Атмосферное давление - приведенное к уровню моря атмосферное давление.
Po - Атмосферное давление - измеренное на уровне метеостанции атмосферное давление.
Tmin - Минимальная температура - минимум температуры воздуха на высоте 2 м над землей.
Tmax - Максимальная температура - максимум температуры воздуха на высоте 2 м над землей.
R - Количество осадков - Количество выпавших осадков за период времени, мм. При наведении курсора мыши на число - период времени, за который выпало указанное количество осадков.
R24 - Количество осадков - Количество выпавших осадков за 24 часа, мм.
S - Снежный покров - Высота снежного покрова, см. При наведении курсора мыши на число - состояние снежного покрова и степень покрытия местности в баллах.